Regional Weather Roundup
Issued by NWS Mobile, AL

Home | Current Version | Previous Version | Text Only | Print | Product List | Glossary On
Versions: 1 2 3 4 5 6 7 8 9 10 11 12 13 14 15 16 17 18 19 20 21 22 23 24 25 26 27 28 29 30 31 32 33 34 35 36 37 38 39 40 41 42 43 44 45 46 47 48 49 50
000
ASUS44 KMOB 102310
RWRMOB
REGIONAL WEATHER ROUNDUP
NATIONAL WEATHER SERVICE MOBILE AL
600 PM CDT THU JUL 10 2014

NOTE: "FAIR" INDICATES FEW OR NO CLOUDS BELOW 12,000 FEET WITH NO
      SIGNIFICANT WEATHER AND/OR OBSTRUCTIONS TO VISIBILITY.

  * THESE STATIONS ARE PART OF THE UNIVERSITY OF SOUTH ALABAMA
    MESONET AND ARE NOT UNDER NWS OR FAA QUALITY CONTROL.

ALZ061>064-110000-
COASTAL ALABAMA

CITY           SKY/WX    TMP DP  RH WIND       PRES   REMARKS
MOBILE REG APT CLOUDY    78  74  87 W3        30.05F
BROOKLEY FIELD CLOUDY    78  74  87 S3        30.05F
USA CAMPUS*      N/A     79  73  83 CALM      30.03F
DOG RIVER*       N/A     79  73  83 W3        30.04F


CITY           SKY/WX    TMP DP  RH WIND       PRES   REMARKS
MOUNT VERNON*    N/A     77  72  83 CALM      30.05F
SARALAND*      NOT AVBL
BAY MINETTE*   NOT AVBL
LOXLEY*          N/A     75  73  94 CALM      30.04F
ROBERTSDALE*     N/A    N/A N/A N/A CALM      30.04F
FAIRHOPE*        N/A     77  73  88 NE2       30.03F
ELBERTA*         N/A     75  63  64 CALM      30.04
FOLEY*         NOT AVBL
GRAND BAY*       N/A     82  73  74 CALM      30.02F
DAUPHIN ISLND* NOT AVBL
BON SCOUR NWR* NOT AVBL
GULF SHORES    PTSUNNY   76  72  89 CALM      30.04F

$$

ALZ051>060-110000-
INTERIOR SOUTHWEST AND SOUTH CENTRAL ALABAMA

CITY           SKY/WX    TMP DP  RH WIND       PRES   REMARKS
GREENVILLE     NOT AVBL
EVERGREEN      PTSUNNY   82  73  74 SW3       30.06R
CASTLEBERRY*   NOT AVBL
ATMORE*          N/A     79  72  78 CALM      30.07R
DIXIE*           N/A     84  70  61 CALM      30.03R
ANDALUSIA/OPP  CLOUDY    78  72  81 CALM      30.06R
ANDALUSIA*     NOT AVBL
FLORALA APT    CLOUDY    75  72  90 CALM      30.08S
FLORALA*         N/A     73  72  94 CALM      30.04S

$$

FLZ001>006-110000-
WESTERN FLORIDA PANHANDLE

CITY           SKY/WX    TMP DP  RH WIND       PRES   REMARKS
PENSACOLA      CLOUDY    74  70  87 CALM      30.04F
NAS PENSACOLA  CLOUDY    75  73  93 NW3       30.04S
MILTON         CLOUDY    75  69  81 CALM      30.05F
WHTNG S FIELD  CLOUDY    77  72  84 VRB3      30.05F


CITY           SKY/WX    TMP DP  RH WIND       PRES   REMARKS
WALNUT HILL*   NOT AVBL
JAY*           NOT AVBL
DUKE FIELD     DRIZZLE   73  73  99 NW2       30.06S
CRESTVIEW      CLOUDY    75  74  96 NE3       30.07R FOG
VALPARAISO     LGT RAIN  75  69  81 N7        30.04F
DESTIN         CLOUDY    79  69  71 N9        30.05F

$$

MSZ076-079-110000-
INTERIOR SOUTHEAST MISSISSIPPI

CITY           SKY/WX    TMP DP  RH WIND       PRES   REMARKS
LEAKESVILLE*     N/A     81  72  74 CALM      30.04F
AGRICOLA*      NOT AVBL

$$

MARINE OBSERVATIONS

STATION/POSITION TIME  TEMP    WIND        PRES    WAVE
                       AIR SEA DIR/SP/G            HT/PER
                 (UTC) (F)     (DEG/KT/KT) (MB)    (FT/S)
PASCAGOULA       2300   81     190/  4/  5 1017.0F
PETIT BOIS ISLND 2300   82     110/  3/  5 1017.7F
GRAND BAY        2200   77      60/  5     1019.0S
KATRINA CUT      2200   80      50/  7     1018.3S
CEDAR POINT      2200   78      60/  5     1018.3R
E DAUPHIN ISLAND 2200   79      20/  8/  9 1017.6F
MIDDLE BAY LIGHT 2200   79      30/  3     1016.6F
USCG MOBILE BAY  2300   79 83  240/  2/  4 1015.9F
STATE DOCKS      2300   80 84              1016.9F
MEAHER PARK      2200   78     140/  2     1017.3F
WEEKS BAY        2200   72                   N/A
FORT MORGAN      2300   81      70/  2/  4 1016.9F
12 S ORANGE BCH  2300   78 84  360/  6/  8 1017.6F   1/ 4
PENSACOLA BAY    2300   77 80  340/  2/  4 1017.7R
64 S DAUPHIN ISL 2157   80 84  240/  4/  4 1017.9
67 S FORT MORGAN 2200   81                 1017.6S

$$

SELECTED LOCATIONS ACROSS THE REGION

CITY           SKY/WX    TMP DP  RH WIND       PRES   REMARKS
NEW ORLEANS    CLOUDY    83  74  74 SW7       30.04F
GULFPORT       PTSUNNY   88  71  57 SE10      30.03F
PASCAGOULA AP  PTSUNNY   83  73  72 CALM      30.04F
PASCAGOULA*      N/A     84  72  65 CALM      30.03F
HATTIESBURG      N/A     77  69  76 W17       30.05R THUNDER
LAUREL         PTSUNNY   79  70  73 W7        30.06S
MERIDIAN       PTSUNNY   84  70  62 S3        30.03F
JACKSON        CLOUDY    78  73  84 S9        30.03S THUNDER
MONTGOMERY     MOSUNNY   85  73  67 S3        30.03R
TROY           CLOUDY    79  71  76 CALM      30.07R
KINSTON*       NOT AVBL
GENEVA*          N/A     72  70  94 S5        30.08F
ASHFORD*       NOT AVBL
DOTHAN         CLOUDY    75  70  84 W9G22     30.12R
PANAMA CITY    PTSUNNY   81  74  79 W15       30.04S

$$




USA.gov is the U.S. government's official web portal to all federal, state and local government web resources and services.